This is the latest recevied weather packets stored in our database for station/object WE1C. If no packets are shown the sender has not sent any weather packets the latest 10 day(s).
| Time | Temp. | Humidity | Pressure | Rain* | Wind** | Luminosity | Snow |
|---|---|---|---|---|---|---|---|
| 1777734791 | 9.44° C | 87% | 1040.6 hPa | 0 mm | - | 89 W/m² | - |
| 1777734489 | 9.44° C | 88% | 1040.3 hPa | 0 mm | - | 101 W/m² | - |
| 1777734185 | 9.44° C | 87% | 1040.4 hPa | 0 mm | - | 118 W/m² | - |
| 1777733881 | 9.44° C | 88% | 1040.6 hPa | 0 mm | - | 143 W/m² | - |
| 1777733578 | 9.44° C | 87% | 1040.5 hPa | 0 mm | - | 116 W/m² | - |
| 1777733274 | 8.89° C | 88% | 1040.5 hPa | 0 mm | - | 154 W/m² | - |
| 1777732972 | 9.44° C | 88% | 1040.6 hPa | 0 mm | - | 86 W/m² | - |
| 1777732667 | 8.89° C | 88% | 1040.7 hPa | 0 mm | - | 94 W/m² | - |
| 1777732365 | 9.44° C | 88% | 1040.8 hPa | 0 mm | - | 99 W/m² | - |
| 1777732062 | 9.44° C | 87% | 1040.5 hPa | 0 mm | - | 95 W/m² | - |
| 1777731759 | 9.44° C | 87% | 1040.8 hPa | 0 mm | - | 163 W/m² | - |
| 1777731456 | 9.44° C | 87% | 1040.7 hPa | 0 mm | - | 188 W/m² | - |
| 1777731154 | 8.89° C | 90% | 1040.8 hPa | 0 mm | - | 811 W/m² | - |
| 1777730852 | 8.89° C | 91% | 1040.7 hPa | 0 mm | - | 327 W/m² | - |
| 1777730549 | 8.33° C | 90% | 1040.7 hPa | 0 mm | - | 323 W/m² | - |
| 1777730245 | 8.89° C | 92% | 1041.2 hPa | 0 mm | - | 251 W/m² | - |
| 1777729942 | 8.33° C | 93% | 1041.1 hPa | 0 mm | - | 297 W/m² | - |
| 1777729638 | 8.33° C | 94% | 1040.9 hPa | 0 mm | - | 271 W/m² | - |
| 1777729335 | 7.78° C | 95% | 1041.2 hPa | 0 mm | - | 228 W/m² | - |
| 1777729031 | 7.78° C | 96% | 1041 hPa | 0 mm | - | 224 W/m² | - |
| 1777728728 | 7.78° C | 97% | 1040.9 hPa | 0 mm | - | 221 W/m² | - |
| 1777728425 | 7.78° C | 98% | 1041.2 hPa | 0 mm | - | 169 W/m² | - |
| 1777728122 | 7.78° C | 98% | 1041.5 hPa | 0 mm | - | 143 W/m² | - |
| 1777727819 | 7.78° C | 98% | 1041.5 hPa | 0 mm | - | 99 W/m² | - |
| 1777727516 | 7.78° C | 98% | 1041.3 hPa | 0 mm | - | 129 W/m² | - |
* Rain latest hour (hover to see other rain measurements)
** Current wind speed in m/s (hover to see current wind gust speed)